STARLINK-1740 (46566 NORAD) Tracking and Keplerian Element Data

This shows tracking and keplerian element data for the satellite.

Feedback or suggestion? Click here.




ElementValue
Catalog46566
NameSTARLINK-1740
Epoch Orbit178
Epoch Day338.66668981
Epoch Year2020
RAAN156.6502
Inclination53.0011
Eccentricity0.0002351
Argument of Perigee31.7821
Mean Anonmoly148.8458
Mean Motion15.6278975
Decay Rate-0.00022318
L11 46566U 20070AL 20338.66668981 -.00022318 00000-0 -23818-3 0 9995
L22 46566 53.0011 156.6502 0002351 31.7821 148.8458 15.62789750 1781

Live tracking and technical data element details for STARLINK-1740 (NORAD 46566). STARLINK-1740 can be tracked NOW for your location showing map with azimuth and elevation plus other details from your city location.

Track the satellite on the map from your city or location and see movement details for azimuth, elevation, latitude, longitude, range, height, and movement on the map or in text.







IsCatalogInMostPopularTable: catalog: 46566, numindb: 15
Update: records affected: 1



GetName: 46566 STARLINK-1740

Hit Count: updated at: Sat, 05 Dec 2020 04:51:48 GMT